Location: Clanezzo
(45.7500°N, 9.6000°E)
Time: 04:13:11
(UTC+00:00)

Cosmos 2154 Rocket - Pass Details

Date: 12 May 2021
Orbit: 965 x 997 km, 82.9° (Epoch: 18 June)

Event Time Altitude Azimuth Distance (km) Brightness Sun altitude
Rises 21:25:14 0° 349° (N) 3,719 8.4 -21.0°
Reaches altitude 10° 21:27:47 10° 347° (NNW) 2,763 7.4 -21.2°
Maximum altitude 21:34:05 71° 266° (W) 1,043 4.1 -21.7°
Enters shadow 21:36:55 34° 191° (SSW) 1,553 4.6 -21.9°
